Temperature
10 10 10 11 11 11 11 11 11 11 11 11 11 12 12 12 12 12 12 12 12 12 12 12 12 12 12 12 12 12 12 12 12 12 12 12 12 12 11 11 11 11 10
10 10 10 10 10 10 10 10 10 10 11 11 11 11 11 11 12 12 12 12 12 12 12 12 12 12 12 12 12 12 12 12 12 12 12 12 12 12 11 11 11 11 10
9 9 9 9 9 9 9 9 10 10 10 10 10 10 10 11 11 11 11 12 12 12 12 12 12 12 12 12 12 12 12 12 12 12 12 12 12 11 11 11 11 11 10
8 8 8 8 8 8 8 9 9 9 9 9 9 10 10 10 10 10 11 11 11 11 11 11 11 11 11 11 11 11 11 11 12 12 12 11 11 11 11 11 11 10 10
8 8 8 8 7 8 8 8 8 8 8 8 8 9 9 9 10 10 10 10 10 11 11 11 11 11 11 11 11 11 11 11 11 11 11 11 11 11 11 11 10 10 10
7 7 7 7 7 7 7 7 7 7 7 7 7 8 8 9 9 9 10 10 10 10 10 10 10 10 11 11 11 11 11 11 11 11 11 11 11 11 10 10 10 10 10
7 7 7 7 6 6 6 6 6 6 6 6 6 7 8 8 8 9 9 9 9 10 10 10 10 10 10 10 10 10 10 10 10 10 10 10 10 10 10 10 10 10 10
7 6 6 6 6 6 6 6 6 6 6 5 5 5 5 6 7 8 8 8 9 9 9 9 9 9 9 10 10 10 10 10 10 10 10 10 10 10 10 10 10 10 10
6 6 6 5 5 5 5 5 5 5 5 5 4 4 4 4 5 6 7 8 8 8 8 9 9 9 9 9 9 9 9 9 9 9 10 10 10 10 10 10 10 10 9
6 6 5 5 5 5 5 5 4 4 4 4 4 4 4 4 3 4 6 6 7 7 8 8 8 8 8 8 9 9 9 9 9 9 9 9 9 9 9 9 10 9 9
5 5 5 5 4 4 4 4 4 4 4 3 3 3 3 3 3 3 4 5 6 6 7 7 7 8 8 8 8 8 9 9 8 8 8 9 9 9 9 9 9 9 9
5 5 4 4 4 4 4 4 4 4 3 3 3 3 3 3 3 3 3 4 4 5 6 7 7 7 7 8 8 8 8 8 8 8 8 8 8 9 9 9 9 9 9
4 4 4 4 4 4 3 3 3 3 3 3 3 3 3 2 3 3 3 3 3 4 5 6 6 7 7 7 7 7 8 8 8 7 8 8 8 8 8 8 8 8 8
4 4 4 4 3 3 3 3 3 3 3 3 2 2 2 2 2 3 3 3 3 3 4 5 6 6 6 6 7 7 7 7 7 7 7 7 7 8 8 8 8 8 8
3 3 3 3 3 3 3 3 3 3 2 2 2 2 2 2 2 2 2 3 2 2 3 4 5 6 6 6 6 6 6 7 7 7 7 7 7 7 7 8 8 8 8
3 3 3 3 3 3 2 2 2 2 2 2 2 2 2 2 2 2 2 2 2 2 2 3 4 5 5 5 5 6 6 6 6 6 6 7 7 7 7 7 7 7 7
3 3 3 2 2 2 2 2 2 2 2 2 1 1 2 2 2 2 2 2 2 2 2 3 3 4 4 5 5 5 5 5 6 6 6 6 6 6 6 7 7 7 7
2 2 2 2 2 2 2 1 1 1 1 1 1 1 1 1 1 2 2 2 2 2 2 2 3 3 4 4 4 4 5 5 5 5 6 6 6 6 6 6 6 6 6
2 2 2 2 2 1 1 1 1 1 1 1 1 1 1 1 1 1 1 1 1 2 2 2 2 2 3 3 4 4 4 4 5 5 5 5 5 5 5 6 6 6 6
2 2 2 1 1 1 1 1 0 0 0 0 0 0 1 1 1 1 1 1 1 1 2 2 2 2 2 3 3 3 3 4 4 4 4 4 5 5 5 5 5 5 5
2 1 1 1 1 1 0 -0 -0 -0 -0 -0 -0 0 0 1 1 1 1 1 1 1 1 2 2 2 2 2 3 3 3 3 3 4 4 4 4 4 4 4 5 5 5
1 1 1 1 1 0 0 -0 -1 -1 -1 -1 -0 -0 0 0 1 1 1 1 1 1 2 2 2 2 2 3 3 3 3 3 3 3 3 3 3 3 4 4 4 4 4
1 1 1 0 0 0 -0 -1 -1 -1 -1 -1 -1 -0 -0 -0 0 0 1 1 1 1 2 2 2 2 2 3 3 3 3 3 3 3 3 3 3 3 3 3 3 4 4
0 0 0 0 -0 -0 -1 -1 -1 -1 -1 -1 -1 -1 -1 -0 -0 -0 0 1 1 1 1 2 2 2 2 2 3 3 3 3 2 2 2 2 2 2 2 3 3 3 3
-0 -0 -0 -0 -1 -1 -1 -1 -1 -2 -1 -1 -1 -1 -1 -1 -0 -0 0 0 1 1 1 2 2 2 2 2 2 2 2 2 2 2 2 2 1 1 2 2 2 2 3
-1 -1 -1 -1 -1 -1 -1 -1 -2 -2 -2 -1 -1 -1 -1 -1 -0 -0 -0 0 0 1 1 1 1 2 2 2 2 2 2 2 2 1 2 2 1 1 1 1 1 2 2
Wind_Speed
2 3 3 4 5 5 5 5 5 5 5 5 5 5 5 5 6 6 7 11 13 15 16 16 16 16 16 15 16 16 16 17 17 18 18 18 17 18 17 16 16 15 14
2 2 3 3 4 5 5 4 5 4 4 4 5 5 6 6 6 7 7 9 12 14 16 17 16 16 17 16 16 15 15 16 17 17 18 18 18 18 18 17 16 15 15
3 2 3 3 4 6 5 4 5 3 4 5 6 6 6 6 6 7 7 8 9 12 15 16 16 16 17 17 17 16 15 15 16 16 18 18 18 18 18 18 17 16 16
4 2 2 3 5 5 3 3 4 4 4 5 6 6 6 6 7 7 7 7 8 9 11 15 15 16 16 16 17 16 16 15 15 16 16 18 18 18 17 18 18 17 16
5 3 3 3 4 3 3 4 4 3 5 6 6 6 6 6 7 8 8 8 8 8 8 11 14 15 16 16 16 16 15 16 16 16 16 17 18 19 18 17 17 17 16
5 4 3 4 4 3 4 4 4 4 4 5 7 8 7 7 7 7 8 7 7 8 8 9 10 11 14 16 16 16 16 16 16 16 17 17 18 20 19 18 17 17 16
5 4 4 3 3 4 5 5 4 5 5 4 4 6 6 7 7 7 7 7 7 8 7 8 8 8 10 15 16 17 17 17 17 17 17 17 17 19 19 19 18 18 18
5 5 4 4 4 4 5 5 4 4 4 3 2 4 4 5 4 6 6 7 7 6 7 8 9 9 9 9 12 16 17 18 18 17 17 17 18 19 20 19 18 19 18
6 6 6 5 5 5 5 6 6 6 6 4 3 3 3 4 5 4 6 6 6 6 6 7 9 10 11 10 10 13 16 18 18 18 18 18 18 19 19 20 18 19 19
7 7 7 6 6 6 6 7 6 6 6 6 4 5 6 5 4 5 4 4 6 7 7 7 8 9 11 10 11 12 15 16 18 18 18 19 19 19 19 19 19 18 18
6 7 7 6 7 6 7 7 7 7 7 7 6 5 6 6 7 7 9 6 5 6 7 7 7 8 10 11 10 12 14 15 17 18 19 19 19 19 19 19 18 18 16
6 7 7 6 7 7 8 8 8 8 8 9 8 7 6 6 6 7 9 10 9 7 7 7 7 7 9 10 12 13 14 15 16 17 17 18 19 19 18 17 16 15 15
6 7 7 7 7 8 8 8 8 9 9 9 10 9 8 9 8 8 9 9 10 7 6 6 7 7 8 8 9 12 13 15 16 17 17 16 16 16 15 15 15 14 13
8 8 8 8 9 9 9 8 8 9 8 9 11 10 9 9 9 9 8 8 10 8 7 7 5 7 7 7 9 11 11 14 15 15 15 15 15 14 14 14 13 12 12
8 9 9 9 9 9 9 9 8 9 9 10 10 11 10 9 9 9 8 8 8 10 11 8 5 5 5 6 9 9 9 12 14 14 15 14 13 13 13 12 11 10 10
9 10 10 10 10 9 9 9 9 9 10 10 9 10 11 9 8 8 8 8 9 10 11 8 7 6 6 7 10 8 9 12 13 13 13 13 12 11 10 10 10 9 10
10 10 10 10 10 10 9 9 10 10 11 12 11 12 12 11 9 9 8 8 8 8 11 10 7 6 6 7 6 6 7 7 8 12 13 12 10 10 10 9 9 9 9
10 10 10 10 10 10 10 10 11 11 12 13 12 12 12 11 11 9 8 9 9 9 9 12 9 7 7 6 5 5 5 5 5 8 10 10 9 9 9 9 8 8 7
10 10 9 10 11 11 11 11 12 12 12 13 12 13 13 12 12 9 10 10 9 9 8 9 9 7 5 4 4 4 5 4 4 5 6 7 8 8 8 8 8 7 7
10 10 10 10 11 11 11 11 11 12 12 12 12 12 12 12 13 12 11 11 9 9 8 8 8 7 5 3 3 3 3 2 3 2 3 3 5 6 7 7 8 7 7
11 10 10 11 11 10 10 11 11 11 11 12 11 11 11 13 15 13 11 9 9 9 8 8 8 6 5 4 4 3 4 2 1 1 1 1 1 2 3 6 7 7 7
10 10 10 11 11 11 15 17 14 11 11 11 11 10 10 12 14 17 17 16 14 12 10 9 8 8 7 6 4 4 4 2 2 1 3 1 2 2 2 3 6 7 7
10 11 11 11 12 13 17 17 17 11 10 10 10 9 9 10 12 9 12 14 14 17 16 11 10 9 8 7 6 5 5 4 3 3 3 1 1 1 1 3 6 6 7
9 10 10 10 10 11 15 16 16 11 9 9 9 9 9 9 9 9 8 8 8 9 11 10 9 8 7 6 7 6 5 3 1 1 3 2 1 1 1 1 4 6 7
10 9 9 9 9 10 15 15 15 8 8 9 8 8 9 9 12 12 9 8 7 6 7 9 9 8 9 9 8 5 5 5 3 2 2 2 1 1 1 1 2 5 8
9 9 9 8 8 9 13 15 14 6 7 7 7 7 11 11 12 12 8 7 7 6 3 3 3 4 4 5 7 7 7 7 4 2 2 3 3 2 1 1 1 2 4
Wind_Direction
338 346 347 351 345 342 340 332 329 325 321 313 309 292 279 280 276 265 261 262 257 251 253 254 250 246 245 244 241 239 235 233 232 228 226 226 226 224 224 225 224 226 224
338 322 318 328 331 329 326 320 305 301 302 299 294 292 281 278 274 270 265 262 262 257 254 256 255 250 247 246 246 244 241 238 237 234 230 229 229 229 227 227 227 227 226
315 312 303 306 316 319 319 321 312 307 305 308 298 292 287 282 277 271 270 262 258 259 256 256 257 256 250 248 247 246 243 241 239 238 234 231 230 230 231 228 226 228 228
303 311 294 296 312 322 318 300 303 302 302 304 297 290 286 282 280 274 270 264 258 256 258 257 258 258 255 251 247 247 245 242 240 239 238 234 232 231 233 231 228 229 229
303 301 283 293 313 310 298 295 304 289 294 297 293 286 277 274 272 274 266 260 256 253 253 258 257 260 258 255 252 249 248 246 243 241 241 239 234 233 234 234 231 229 230
297 294 288 291 302 296 295 286 285 286 277 287 291 292 279 269 263 259 258 257 254 252 251 255 254 257 257 257 255 253 251 251 249 247 245 243 241 237 235 236 232 229 230
294 289 286 288 285 283 283 280 275 287 285 290 297 300 287 265 256 255 250 249 248 251 250 251 251 253 257 256 255 256 254 252 253 251 246 245 247 242 237 237 234 231 230
292 292 278 277 276 278 283 279 272 272 282 276 280 309 305 298 266 255 247 246 247 247 247 254 251 248 253 252 254 255 255 255 255 254 250 247 249 246 240 237 237 232 229
287 282 277 271 270 263 270 270 260 256 272 266 230 234 270 276 310 271 247 245 246 252 252 250 249 249 248 248 250 251 253 254 254 256 255 253 251 250 246 239 238 234 229
281 280 276 270 268 264 264 266 263 250 255 263 254 236 240 249 270 293 279 254 256 257 252 260 252 249 247 245 246 252 252 253 254 256 257 257 254 251 248 244 238 236 232
279 277 275 270 269 266 264 264 264 254 247 249 249 250 256 256 247 257 279 278 271 252 252 250 249 250 249 245 243 246 253 255 255 257 258 260 257 255 252 247 243 236 233
285 276 273 268 267 265 263 261 260 254 250 249 248 244 248 253 250 251 265 275 278 274 266 254 248 248 252 245 245 250 251 254 255 257 258 259 259 258 256 251 247 236 231
286 279 278 272 271 268 264 261 260 257 251 250 246 246 246 250 254 257 264 273 280 285 272 257 244 242 253 248 247 252 252 253 255 256 257 257 259 258 256 254 248 236 229
275 276 275 273 272 271 269 264 261 259 256 251 251 249 252 251 250 252 254 265 279 283 274 266 252 236 241 247 253 256 252 253 253 254 255 255 256 253 249 249 241 234 225
279 277 276 275 273 270 267 264 261 260 259 257 253 249 250 251 249 251 249 245 253 271 276 270 262 236 236 252 256 250 248 253 255 254 252 250 249 247 245 239 227 222 216
279 280 279 275 273 271 268 263 261 261 258 260 256 253 253 252 252 251 247 246 242 250 267 265 269 270 253 263 264 257 251 256 253 252 248 245 244 242 231 221 212 213 214
280 278 277 274 273 272 270 267 264 264 261 262 258 256 256 253 252 251 248 249 248 246 261 273 272 272 253 252 260 255 254 248 249 247 243 238 235 228 219 211 206 208 210
282 279 280 275 274 273 270 269 270 270 265 264 260 259 260 257 251 250 248 250 251 246 250 266 273 272 260 246 245 253 261 254 246 244 237 230 225 221 215 209 204 202 201
284 282 280 277 275 274 272 271 269 268 267 265 260 258 258 255 253 249 245 248 252 253 247 253 266 271 267 250 245 264 262 253 251 236 227 225 222 218 209 204 197 191 192
284 281 279 277 276 277 274 273 271 268 268 268 263 258 256 252 251 247 248 245 247 248 245 246 257 262 260 249 227 240 265 251 249 240 231 226 220 213 204 197 187 182 181
285 282 282 282 278 276 275 276 274 270 269 270 268 261 257 258 258 256 255 246 242 243 240 242 247 250 249 233 228 225 242 253 270 218 161 191 172 178 185 177 172 172 172
291 289 285 283 282 281 286 290 285 276 273 271 270 268 266 264 265 266 265 261 254 245 238 239 243 241 239 231 224 216 214 235 266 189 150 141 126 150 167 159 151 155 160
298 294 290 285 280 283 292 295 291 286 276 272 271 272 274 272 273 267 269 269 264 253 244 242 243 241 236 224 215 220 219 221 239 191 141 167 111 132 129 130 134 142 148
301 299 295 290 287 288 297 299 301 292 280 273 271 270 270 271 269 271 269 265 263 254 247 244 239 240 238 226 214 219 204 174 154 163 150 178 147 114 70 86 124 136 141
305 304 302 300 295 294 300 301 302 291 285 284 280 275 272 268 269 273 270 265 267 263 256 245 242 237 233 227 216 192 175 160 188 211 146 152 153 107 85 78 100 128 135
303 306 303 305 303 299 302 305 305 291 289 289 286 279 278 275 271 271 263 257 260 261 247 249 248 248 235 221 223 210 188 176 178 204 178 145 152 132 106 40 62 106 121
Height
1485 1484 1483 1482 1481 1481 1480 1480 1479 1479 1478 1478 1478 1478 1478 1478 1478 1479 1479 1480 1481 1482 1483 1484 1485 1486 1487 1488 1489 1490 1490 1491 1492 1492 1493 1494 1494 1495 1496 1497 1498 1498 1499
1482 1481 1479 1478 1478 1477 1476 1475 1475 1474 1473 1473 1473 1473 1473 1473 1473 1473 1473 1474 1475 1476 1477 1478 1479 1480 1480 1482 1483 1484 1485 1485 1486 1487 1487 1488 1489 1490 1491 1492 1493 1494 1494
1479 1477 1476 1475 1474 1473 1472 1471 1470 1469 1469 1468 1467 1468 1467 1467 1467 1468 1468 1468 1468 1469 1470 1471 1472 1473 1474 1475 1477 1478 1479 1480 1480 1481 1482 1483 1484 1485 1486 1487 1488 1489 1490
1476 1474 1472 1471 1470 1469 1468 1466 1465 1464 1463 1462 1462 1462 1461 1461 1461 1461 1462 1462 1462 1463 1463 1464 1466 1467 1468 1469 1470 1472 1473 1474 1474 1475 1476 1477 1478 1479 1480 1481 1482 1483 1484
1472 1471 1469 1467 1466 1465 1463 1462 1461 1460 1458 1457 1456 1455 1455 1454 1454 1455 1455 1456 1456 1456 1457 1458 1459 1460 1461 1462 1464 1465 1466 1467 1468 1469 1470 1471 1472 1473 1474 1476 1477 1478 1479
1469 1467 1465 1464 1462 1461 1459 1457 1456 1455 1454 1452 1451 1449 1448 1448 1448 1448 1448 1449 1449 1450 1450 1451 1452 1453 1454 1455 1456 1458 1459 1461 1462 1462 1464 1465 1466 1467 1468 1469 1471 1471 1473
1465 1463 1461 1460 1458 1456 1455 1453 1451 1450 1449 1448 1446 1443 1441 1441 1441 1441 1441 1442 1442 1443 1444 1444 1445 1446 1447 1448 1450 1451 1452 1454 1455 1456 1457 1458 1460 1461 1462 1463 1464 1465 1466
1461 1459 1457 1455 1454 1452 1450 1449 1447 1445 1444 1444 1443 1440 1436 1434 1433 1434 1434 1435 1435 1436 1437 1438 1438 1439 1440 1441 1442 1444 1445 1447 1448 1449 1450 1451 1453 1455 1455 1457 1458 1459 1460
1456 1455 1453 1451 1449 1447 1445 1444 1442 1440 1439 1439 1440 1440 1437 1432 1428 1426 1427 1428 1428 1429 1430 1431 1432 1432 1433 1434 1435 1437 1438 1440 1441 1442 1443 1445 1446 1448 1449 1450 1451 1452 1453
1451 1449 1447 1446 1444 1442 1440 1439 1437 1436 1435 1433 1434 1434 1433 1431 1428 1421 1419 1421 1422 1422 1423 1424 1424 1425 1426 1427 1428 1429 1431 1432 1433 1435 1436 1438 1439 1440 1442 1443 1444 1445 1447
1446 1444 1442 1440 1438 1436 1435 1433 1432 1430 1429 1428 1427 1427 1427 1426 1424 1421 1415 1413 1414 1415 1416 1416 1417 1417 1419 1419 1420 1421 1423 1424 1426 1428 1429 1430 1432 1433 1434 1436 1437 1439 1440
1439 1438 1436 1434 1432 1430 1429 1427 1425 1424 1423 1422 1421 1421 1420 1419 1418 1416 1412 1408 1407 1406 1408 1409 1410 1410 1411 1412 1413 1414 1415 1417 1418 1420 1421 1423 1424 1426 1427 1428 1430 1431 1433
1433 1432 1430 1428 1426 1424 1422 1420 1419 1417 1416 1415 1414 1413 1413 1412 1412 1411 1409 1404 1402 1399 1400 1401 1402 1403 1404 1405 1405 1406 1407 1409 1411 1412 1414 1415 1417 1418 1419 1421 1423 1424 1426
1428 1426 1424 1422 1420 1418 1416 1414 1412 1410 1409 1407 1406 1406 1405 1405 1405 1404 1403 1401 1397 1393 1393 1393 1395 1396 1397 1397 1397 1399 1399 1401 1403 1404 1406 1408 1409 1410 1412 1414 1416 1417 1418
1423 1420 1418 1415 1413 1411 1409 1407 1405 1403 1402 1400 1399 1398 1398 1397 1397 1397 1396 1396 1395 1390 1386 1386 1387 1388 1389 1390 1390 1391 1392 1393 1395 1396 1398 1400 1402 1403 1405 1406 1409 1410 1412
1417 1414 1412 1409 1406 1404 1402 1400 1398 1396 1394 1393 1392 1391 1390 1389 1389 1389 1389 1389 1388 1386 1381 1379 1381 1382 1383 1383 1384 1384 1385 1386 1387 1389 1391 1393 1394 1396 1397 1399 1401 1403 1406
1411 1408 1405 1402 1400 1397 1395 1393 1390 1389 1387 1385 1384 1383 1382 1382 1381 1381 1381 1381 1380 1380 1376 1373 1375 1375 1376 1376 1377 1378 1378 1379 1380 1382 1384 1386 1387 1389 1391 1393 1395 1397 1400
1405 1402 1399 1396 1393 1390 1388 1385 1382 1380 1379 1377 1376 1375 1374 1374 1373 1373 1373 1372 1372 1372 1371 1368 1368 1369 1369 1370 1370 1371 1371 1372 1374 1375 1377 1379 1381 1383 1385 1387 1389 1392 1394
1399 1396 1393 1389 1386 1383 1380 1377 1375 1373 1371 1369 1368 1366 1365 1365 1364 1364 1365 1364 1365 1365 1365 1364 1362 1363 1363 1364 1365 1365 1366 1367 1368 1369 1371 1373 1375 1377 1379 1381 1383 1386 1389
1392 1389 1386 1382 1379 1376 1373 1370 1367 1365 1363 1361 1360 1358 1357 1357 1356 1356 1356 1356 1357 1357 1358 1358 1357 1358 1359 1359 1360 1359 1360 1361 1362 1364 1366 1368 1369 1372 1374 1376 1378 1381 1384
1386 1383 1379 1375 1372 1368 1365 1362 1360 1358 1356 1354 1352 1351 1350 1349 1348 1348 1348 1348 1349 1350 1351 1351 1351 1352 1353 1353 1354 1355 1355 1356 1357 1359 1361 1362 1365 1366 1369 1371 1374 1376 1379
1380 1376 1372 1368 1364 1361 1358 1356 1354 1351 1349 1347 1345 1343 1342 1342 1341 1341 1341 1341 1342 1342 1343 1344 1345 1346 1347 1348 1350 1351 1352 1353 1353 1356 1357 1359 1361 1363 1365 1367 1369 1372 1375
1373 1369 1365 1361 1357 1354 1351 1349 1347 1345 1343 1341 1339 1337 1336 1335 1334 1333 1333 1333 1334 1335 1337 1339 1339 1340 1341 1343 1344 1346 1347 1348 1349 1351 1354 1355 1358 1359 1362 1364 1366 1369 1372
1367 1363 1358 1354 1350 1347 1346 1343 1341 1339 1336 1334 1333 1331 1330 1328 1328 1328 1327 1326 1327 1329 1331 1333 1334 1335 1337 1338 1340 1342 1343 1344 1346 1348 1351 1352 1354 1357 1359 1362 1364 1367 1369
1362 1358 1354 1350 1346 1343 1341 1338 1336 1333 1330 1328 1327 1326 1325 1323 1323 1323 1323 1321 1322 1323 1326 1328 1329 1331 1332 1334 1336 1338 1339 1340 1342 1344 1348 1350 1352 1354 1357 1359 1362 1365 1367
1358 1354 1350 1346 1343 1339 1337 1334 1332 1329 1326 1324 1322 1321 1320 1319 1318 1318 1318 1318 1317 1318 1320 1322 1324 1325 1327 1329 1331 1333 1334 1336 1338 1341 1344 1347 1349 1352 1355 1358 1360 1363 1365